Brainerd, MN

11:41 PM CDT on April 27, 2017 (GMT -0500)
Brainerd-Crow Wing County Regional

Weather History for KBRD - September, 2012

Change the Weather History Date:

Saturday, September 22, 2012

  Actual Average Record
Temperature  
Mean Temperature 46 °F -  
Max Temperature 55 °F 61 °F 80 °F (1984)
Min Temperature 37 °F 38 °F 18 °F (1974)
Degree Days  
Heating Degree Days 20    
Moisture  
Dew Point 31 °F    
Average Humidity 60    
Maximum Humidity 87    
Minimum Humidity 35    
Precipitation  
Precipitation 0.01 in - - ()
Sea Level Pressure  
Sea Level Pressure 30.16 in    
Wind  
Wind Speed 13 mph (NNW)    
Max Wind Speed 18 mph    
Max Gust Speed 28 mph    
Visibility 10 miles    
Events Rain    
Averages and records for this station are not official NWS values.
T = Trace of Precipitation, MM = Missing Value Source: NWS Daily Summary

Daily Weather History Graph

Daily Weather History Graph

Search for Another Location

Airport or City:

Trip Planner

Search our weather history database for the weather conditions in past years. The results will help you decide how hot, cold, wet, or windy it might be!

Date:

Astronomy

Sep. 22, 2012 Rise Set
Actual Time 7:04 AM CDT 7:13 PM CDT
Civil Twilight 6:34 AM CDT 7:43 PM CDT
Nautical Twilight 5:58 AM CDT 8:18 PM CDT
Astronomical Twilight 5:22 AM CDT 8:54 PM CDT
Moon 2:43 PM CDT (9/22) 11:58 PM CDT (9/22)
Length of Visible Light 13h 09m
Length of Day
12h 09m
Waxing Crescent, 49% of the Moon is Illuminated
Sep 22
Waxing Crescent
Sep 22
First Quarter
Sep 29
Full
Oct 8
Last Quarter
Oct 15
New

Hourly Weather History & Observations

Time (CDT) Temp. Windchill Dew Point Humidity Pressure Visibility Wind Dir Wind Speed Gust Speed Precip Events Conditions
12:53 AM 39.0 °F 31.0 °F 28.9 °F 67% 29.94 in 10.0 mi NW 13.8 mph - N/A   Scattered Clouds
1:00 AM 39.2 °F 30.5 °F 30.2 °F 70% 29.92 in 10.0 mi NNW 16.1 mph 20.7 mph N/A   Mostly Cloudy
1:53 AM 39.9 °F 32.1 °F 34.0 °F 79% 29.96 in 7.0 mi NW 13.8 mph 23.0 mph 0.01 in Rain Light Rain
2:07 AM 39.2 °F 31.6 °F 35.6 °F 87% 29.95 in 4.0 mi NNW 12.7 mph 23.0 mph 0.00 in   Haze
2:53 AM 43.0 °F 34.8 °F 37.0 °F 80% 29.98 in 10.0 mi North 18.4 mph 26.5 mph 0.00 in   Overcast
3:53 AM 44.1 °F 36.5 °F 36.0 °F 73% 30.01 in 10.0 mi North 17.3 mph 27.6 mph N/A   Overcast
4:53 AM 45.0 °F 38.9 °F 37.0 °F 74% 30.05 in 10.0 mi North 12.7 mph - N/A   Overcast
5:53 AM 45.0 °F 37.9 °F 36.0 °F 71% 30.10 in 10.0 mi North 16.1 mph 21.9 mph N/A   Mostly Cloudy
6:53 AM 45.0 °F 40.1 °F 35.1 °F 68% 30.14 in 10.0 mi North 9.2 mph - N/A   Overcast
8:53 AM 45.0 °F 38.5 °F 33.1 °F 63% 30.21 in 10.0 mi North 13.8 mph 19.6 mph N/A   Overcast
9:53 AM 46.0 °F 40.6 °F 33.1 °F 61% 30.22 in 10.0 mi North 11.5 mph 19.6 mph N/A   Overcast
10:21 AM 46.4 °F 41.1 °F 33.8 °F 62% 30.20 in 10.0 mi NNW 11.5 mph - N/A   Mostly Cloudy
10:53 AM 48.9 °F - 33.1 °F 54% 30.23 in 10.0 mi NNW 17.3 mph 21.9 mph N/A   Scattered Clouds
11:53 AM 51.1 °F - 30.9 °F 46% 30.23 in 10.0 mi North 13.8 mph 20.7 mph N/A   Mostly Cloudy
12:53 PM 52.0 °F - 30.0 °F 43% 30.23 in 10.0 mi NNW 13.8 mph 21.9 mph N/A   Scattered Clouds
1:53 PM 52.0 °F - 30.0 °F 43% 30.23 in 10.0 mi NNW 11.5 mph 19.6 mph N/A   Mostly Cloudy
2:53 PM 53.1 °F - 28.9 °F 40% 30.23 in 10.0 mi WNW 16.1 mph 21.9 mph N/A   Mostly Cloudy
3:53 PM 54.0 °F - 28.0 °F 37% 30.22 in 10.0 mi NNW 15.0 mph - N/A   Mostly Cloudy
4:53 PM 54.0 °F - 27.0 °F 35% 30.22 in 10.0 mi NNW 18.4 mph 21.9 mph N/A   Partly Cloudy
5:53 PM 54.0 °F - 27.0 °F 35% 30.23 in 10.0 mi NNW 10.4 mph - N/A   Clear
6:53 PM 51.1 °F - 27.0 °F 39% 30.23 in 10.0 mi North 12.7 mph - N/A   Clear
7:53 PM 46.0 °F 44.8 °F 28.0 °F 50% 30.24 in 10.0 mi North 3.5 mph - N/A   Clear
8:53 PM 41.0 °F - 30.0 °F 65% 30.26 in 10.0 mi Calm Calm - N/A   Clear
9:53 PM 37.9 °F - 30.0 °F 73% 30.27 in 10.0 mi Calm Calm - N/A   Clear
10:53 PM 39.0 °F 35.7 °F 28.9 °F 67% 30.28 in 10.0 mi North 4.6 mph - N/A   Clear
11:53 PM 37.9 °F - 28.9 °F 70% 30.27 in 10.0 mi Calm Calm - N/A   Clear